Location: St. Louis
(38.6270°N, 90.1994°W)
Time: 20:54:38
(UTC-06:00)

Vanguard 3 - Pass Details

Date: 30 November 2021
Orbit: 508 x 3260 km, 33.3° (Epoch: 19 January)

Event Time Altitude Azimuth Distance (km) Brightness Sun altitude
Exits shadow 05:04:28 - 241° (WSW) 6,471 11.3 -21.9°
Reaches altitude 10° 05:05:49 10° 240° (WSW) 6,195 11.2 -21.6°
Maximum altitude 05:25:02 64° 165° (SSE) 2,984 10.0 -18.0°
Drops below altitude 10° 05:38:07 10° 89° (E) 4,417 12.1 -15.5°
Sets 05:40:59 0° 86° (E) 5,105 12.6 -15.0°
